Regional Weather Roundup
Issued by NWS

Home | Current Version | Previous Version | Text Only | Print | Product List | Glossary Off
Versions: 1 2 3 4 5 6 7 8 9 10 11 12 13 14 15 16 17 18 19 20 21 22 23 24 25 26 27 28 29 30 31 32 33 34 35 36 37 38 39 40 41 42 43 44 45 46 47 48 49 50

000
ASUS44 KMEG 271310
RWRTN
TENNESSEE HOURLY STATE WEATHER ROUNDUP
NATIONAL WEATHER SERVICE MEMPHIS TN
800 AM CDT FRI MAR 27 2015

TNZ002-004-019-021-049-052-054-088>092-271400-
WEST TENNESSEE

CITY           SKY/WX    TMP DP  RH WIND       PRES   REMARKS
MEMPHIS INTL   PTSUNNY   41  36  82 W3        30.07R
NWS MEMPHIS      N/A     36 N/A N/A MISG        N/A
JACKSON        CLOUDY    35  32  88 CALM      30.05R
DYERSBURG      CLOUDY    41  27  56 CALM      30.07R
UNION CITY     PTSUNNY   37  37 100 NW7       30.04R WCI  32
PARIS          PTSUNNY   30  28  93 N3        30.03S
LEXINGTON      MOSUNNY   32  30  93 CALM      30.02R
SAVANNAH       MOSUNNY   34  34 100 CALM      30.04R
$$

TNZ008-025-027-028-033-062-065-066-271400-
NORTH MIDDLE TENNESSEE

CITY           SKY/WX    TMP DP  RH WIND       PRES   REMARKS
NASHVILLE      MOSUNNY   38  34  85 NW6       30.01R WCI  33
CLARKSVILLE    SUNNY     34  32  92 NW6       30.02R WCI  29
SMYRNA         SUNNY     38  35  89 NW8       30.02R WCI  32
COOKEVILLE     MOSUNNY   39  36  87 N7        29.94S WCI  34
CROSSVILLE     PTSUNNY   36  30  79 N8        29.92R WCI  30
$$

TNZ061-075-076-078-094-096-097-271400-
SOUTH MIDDLE TENNESSEE

CITY           SKY/WX    TMP DP  RH WIND       PRES   REMARKS
FAYETTEVILLE   MOSUNNY   36  34  93 N9        29.96R WCI  29
TULLAHOMA      MOSUNNY   36  34  93 N9        29.96R WCI  29
WINCHESTER     CLOUDY    39  36  87 N9        29.96R WCI  33
MCMINNVILLE    PTSUNNY   37  36  93 N8        29.96R WCI  31
COLUMBIA       SUNNY     36  36 100 N3        29.99S
SHELBYVILLE    SUNNY     37  36  93 N8        29.99R WCI  31
$$

TNZ017-018-042-046-047-271400-
NORTHEAST TENNESSEE

CITY           SKY/WX    TMP DP  RH WIND       PRES   REMARKS
TRI CITIES     CLOUDY    41  37  86 N5        29.85R
ELIZABETHTON   LGT RAIN  39  36  87 W5        29.83S
$$

TNZ012-013-036-069-073-074-271400-
CENTRAL EAST TENNESSEE

CITY           SKY/WX    TMP DP  RH WIND       PRES   REMARKS
KNOXVILLE      CLOUDY    42  37  82 N13G20    29.88R
OAK RIDGE      CLOUDY    44  35  70 VRB3      29.91R
GATLINBURG     CLOUDY    39  37  93 N5        29.87R
MORRISTOWN     MOSUNNY   41  37  87 N5        29.87R
$$

TNZ083-085-099-271400-
SOUTHEAST TENNESSEE

CITY           SKY/WX    TMP DP  RH WIND       PRES   REMARKS
CHATTANOOGA    PTSUNNY   45  36  70 NW14      29.90R
$$

SKY/WX REPORTED AS FAIR MEANS FEW OR NO CLOUDS BELOW
12 THOUSAND FEET.



USA.gov is the U.S. government's official web portal to all federal, state and local government web resources and services.